Frankfort, MI

9:53 AM EST on February 19, 2017 (GMT -0500)
Frankfort

Weather History for KFKS - October, 2012

Change the Weather History Date:

Thursday, October 4, 2012

  Actual Average (KMBL) Record (KMBL)
Temperature  
Mean Temperature 67 °F -  
Max Temperature 75 °F 64 °F 82 °F (2005)
Min Temperature 57 °F 46 °F 26 °F (1999)
Cooling Degree Days 2    
Growing Degree Days 17 (Base 50)    
Moisture  
Dew Point 55 °F    
Average Humidity 74    
Maximum Humidity 91    
Minimum Humidity 42    
Precipitation  
Precipitation 0.00 in - - ()
Sea Level Pressure  
Sea Level Pressure 29.94 in    
Wind  
Wind Speed 5 mph (SW)    
Max Wind Speed 21 mph    
Max Gust Speed 30 mph    
Visibility 8 miles    
Events Fog , Rain    
Averages and records for this station are not official NWS values.
T = Trace of Precipitation, MM = Missing Value Source: NWS Daily Summary

Daily Weather History Graph

Daily Weather History Graph

Search for Another Location

Airport or City:

Trip Planner

Search our weather history database for the weather conditions in past years. The results will help you decide how hot, cold, wet, or windy it might be!

Date:

Astronomy

Oct. 04, 2012 Rise Set
Actual Time 7:46 AM EDT 7:18 PM EDT
Civil Twilight 7:17 AM EDT 7:48 PM EDT
Nautical Twilight 6:44 AM EDT 8:21 PM EDT
Astronomical Twilight 6:09 AM EDT 8:55 PM EDT
Moon 9:43 PM EDT (10/4) 12:14 PM EDT (10/4)
Length of Visible Light 12h 30m
Length of Day
11h 32m
Waning Gibbous, 82% of the Moon is Illuminated
Oct 4
Waning Gibbous
Oct 8
Last Quarter
Oct 15
New
Oct 21
First Quarter
Oct 29
Full

Hourly Weather History & Observations

Time (EDT) Temp. Dew Point Humidity Pressure Visibility Wind Dir Wind Speed Gust Speed Precip Events Conditions
12:15 AM 60.4 °F 57.2 °F 89% 30.00 in 3.0 mi Calm Calm - N/A   Drizzle
12:35 AM 60.3 °F 57.2 °F 90% 29.99 in 3.0 mi Calm Calm - N/A   Light Drizzle
12:55 AM 60.3 °F 57.2 °F 90% 29.99 in 4.0 mi Calm Calm - N/A Rain Rain
1:15 AM 60.3 °F 57.2 °F 90% 29.99 in 2.5 mi Calm Calm - N/A Rain Heavy Rain
1:35 AM 60.3 °F 57.2 °F 90% 29.98 in 2.5 mi Calm Calm - N/A Rain Rain
1:55 AM 60.3 °F 57.2 °F 90% 29.99 in 4.0 mi South 3.5 mph - N/A Rain Light Rain
2:15 AM 60.4 °F 57.2 °F 89% 29.98 in 4.0 mi Calm Calm - N/A   Overcast
2:35 AM 60.4 °F 57.2 °F 89% 29.98 in 5.0 mi Calm Calm - N/A   Overcast
2:56 AM 60.4 °F 57.2 °F 89% 29.98 in 4.0 mi Calm Calm - N/A   Drizzle
3:16 AM 60.8 °F 57.6 °F 89% 29.97 in 3.0 mi Calm Calm - N/A Rain Rain
3:31 AM 60.8 °F 57.6 °F 89% 29.97 in 2.5 mi SSW 3.5 mph - N/A Rain Heavy Rain
3:51 AM 60.8 °F 57.7 °F 90% 29.96 in 2.5 mi Calm Calm - N/A Rain Heavy Rain
4:11 AM 61.0 °F 58.1 °F 90% 29.96 in 4.0 mi SSW 3.5 mph - N/A Rain Rain
4:31 AM 61.2 °F 58.1 °F 90% 29.96 in 4.0 mi Calm Calm - N/A Rain Rain
4:51 AM 61.9 °F 59.0 °F 90% 29.96 in 3.0 mi WSW 3.5 mph - N/A Rain Rain
5:11 AM 62.4 °F 59.2 °F 89% 29.96 in 4.0 mi West 5.8 mph - N/A Rain Rain
5:31 AM 62.4 °F 59.0 °F 89% 29.96 in 7.0 mi West 3.5 mph - N/A Rain Rain
5:52 AM 62.6 °F 59.0 °F 88% 29.96 in 7.0 mi West 4.6 mph - N/A   Light Drizzle
6:12 AM 62.6 °F 59.0 °F 88% 29.97 in 7.0 mi West 4.6 mph - N/A   Overcast
6:32 AM 62.6 °F 59.0 °F 88% 29.97 in 7.0 mi Calm Calm - N/A   Overcast
6:52 AM 62.6 °F 58.6 °F 87% 29.97 in 10.0 mi Calm Calm - N/A   Mostly Cloudy
7:12 AM 61.7 °F 57.7 °F 87% 29.97 in 10.0 mi Calm Calm - N/A   Scattered Clouds
7:32 AM 60.6 °F 57.4 °F 89% 29.96 in 1.5 mi Calm Calm - N/A   Mist
7:52 AM 59.9 °F 56.8 °F 90% 29.96 in 0.5 mi Calm Calm - N/A Fog Fog
8:13 AM 60.8 °F 58.1 °F 91% 29.97 in 4.0 mi Calm Calm - N/A   Scattered Clouds
8:33 AM 61.7 °F 58.5 °F 89% 29.97 in 7.0 mi SSW 3.5 mph - N/A   Mostly Cloudy
8:53 AM 61.7 °F 58.3 °F 89% 29.97 in 7.0 mi Calm Calm - N/A   Mostly Cloudy
9:13 AM 62.6 °F 58.6 °F 87% 29.96 in 7.0 mi Calm Calm - N/A   Scattered Clouds
9:33 AM 62.6 °F 59.0 °F 88% 29.96 in 7.0 mi South 3.5 mph - N/A   Mostly Cloudy
9:53 AM 63.1 °F 58.6 °F 85% 29.96 in 7.0 mi SSW 4.6 mph - N/A   Mostly Cloudy
10:13 AM 63.9 °F 58.5 °F 83% 29.96 in 10.0 mi South 5.8 mph - N/A   Scattered Clouds
10:33 AM 64.8 °F 58.8 °F 81% 29.96 in 7.0 mi South 8.1 mph - N/A   Clear
10:53 AM 65.5 °F 58.5 °F 78% 29.96 in 10.0 mi SSW 9.2 mph - N/A   Clear
11:14 AM 65.7 °F 58.6 °F 78% 29.96 in 10.0 mi South 12.7 mph 19.6 mph N/A   Clear
11:54 AM 67.1 °F 57.4 °F 71% 29.95 in 10.0 mi South 11.5 mph 18.4 mph N/A   Clear
12:14 PM 68.4 °F 57.4 °F 68% 29.94 in 10.0 mi South 6.9 mph - N/A   Scattered Clouds
12:34 PM 67.3 °F 58.5 °F 73% 29.94 in 10.0 mi SSW 8.1 mph - N/A   Mostly Cloudy
12:54 PM 68.2 °F 58.8 °F 72% 29.93 in 10.0 mi SSW 8.1 mph - N/A   Overcast
1:14 PM 68.7 °F 58.6 °F 70% 29.94 in 10.0 mi SSW 13.8 mph 20.7 mph N/A   Scattered Clouds
1:34 PM 70.3 °F 59.5 °F 69% 29.92 in 10.0 mi SSW 9.2 mph - N/A   Clear
1:55 PM 71.6 °F 59.2 °F 65% 29.91 in 10.0 mi SSW 8.1 mph 16.1 mph N/A   Clear
2:15 PM 72.3 °F 57.4 °F 59% 29.90 in 10.0 mi SSW 11.5 mph 16.1 mph N/A   Clear
2:35 PM 72.1 °F 54.5 °F 54% 29.89 in 10.0 mi South 13.8 mph 19.6 mph N/A   Clear
2:55 PM 73.4 °F 51.3 °F 46% 29.86 in 10.0 mi South 13.8 mph 26.5 mph N/A   Clear
3:15 PM 75.2 °F 52.7 °F 45% 29.85 in 10.0 mi South 11.5 mph 16.1 mph N/A   Clear
3:35 PM 75.7 °F 51.3 °F 42% 29.85 in 10.0 mi South 10.4 mph 18.4 mph N/A   Clear
3:55 PM 75.0 °F 50.7 °F 42% 29.87 in 10.0 mi SSW 10.4 mph 16.1 mph N/A   Mostly Cloudy
4:16 PM 70.0 °F 55.2 °F 59% 29.89 in 10.0 mi SW 16.1 mph 23.0 mph N/A   Overcast
4:31 PM 71.6 °F 53.2 °F 52% 29.88 in 10.0 mi SSW 18.4 mph 29.9 mph N/A   Mostly Cloudy
5:11 PM 69.3 °F 55.6 °F 62% 29.88 in 10.0 mi South 20.7 mph 29.9 mph N/A   Clear
5:31 PM 68.0 °F 57.2 °F 68% 29.89 in 10.0 mi SSW 16.1 mph 24.2 mph N/A   Scattered Clouds
5:51 PM 67.3 °F 57.9 °F 72% 29.89 in 10.0 mi South 16.1 mph 24.2 mph N/A   Overcast
6:11 PM 67.3 °F 58.1 °F 72% 29.89 in 10.0 mi SSW 15.0 mph 24.2 mph N/A   Overcast
6:31 PM 66.7 °F 57.9 °F 73% 29.88 in 10.0 mi SSW 11.5 mph 20.7 mph N/A   Overcast
6:52 PM 66.4 °F 57.6 °F 73% 29.88 in 10.0 mi SSW 12.7 mph 23.0 mph N/A   Overcast
7:12 PM 66.2 °F 57.0 °F 72% 29.88 in 10.0 mi SSW 11.5 mph 19.6 mph N/A   Overcast
7:32 PM 65.7 °F 57.0 °F 74% 29.88 in 10.0 mi SSW 11.5 mph 19.6 mph N/A   Overcast
7:52 PM 65.5 °F 56.5 °F 73% 29.89 in 10.0 mi SW 8.1 mph - N/A   Overcast
8:12 PM 65.3 °F 54.1 °F 67% 29.89 in 10.0 mi WSW 10.4 mph 18.4 mph N/A   Overcast
8:32 PM 64.8 °F 51.1 °F 61% 29.90 in 10.0 mi WSW 13.8 mph 20.7 mph N/A   Scattered Clouds
8:52 PM 64.4 °F 49.3 °F 58% 29.90 in 10.0 mi WSW 13.8 mph 18.4 mph N/A   Scattered Clouds
9:12 PM 64.2 °F 48.7 °F 57% 29.91 in 10.0 mi WSW 15.0 mph 24.2 mph N/A   Scattered Clouds
9:33 PM 64.0 °F 48.2 °F 56% 29.92 in 10.0 mi West 15.0 mph 21.9 mph N/A   Mostly Cloudy
9:53 PM 63.5 °F 46.9 °F 55% 29.92 in 10.0 mi WSW 15.0 mph 26.5 mph N/A   Overcast
10:13 PM 63.0 °F 45.9 °F 54% 29.93 in 10.0 mi WSW 16.1 mph 23.0 mph N/A   Overcast
10:33 PM 61.7 °F 41.9 °F 48% 29.93 in 10.0 mi West 15.0 mph 25.3 mph N/A   Scattered Clouds
10:53 PM 60.4 °F 40.3 °F 47% 29.94 in 10.0 mi West 13.8 mph 23.0 mph N/A   Clear
11:13 PM 59.5 °F 38.8 °F 46% 29.94 in 10.0 mi West 13.8 mph 23.0 mph N/A   Clear
11:33 PM 59.0 °F 40.8 °F 51% 29.94 in 10.0 mi West 13.8 mph 19.6 mph N/A   Clear
11:53 PM 57.4 °F 39.7 °F 52% 29.95 in 10.0 mi WNW 17.3 mph 28.8 mph N/A   Clear